(254586) = 2005 GF47

Discovered at Mount Lemmon on 2005-04-05 by Mt. Lemmon Survey.

Orbit

Orbit type: Main Belt

Note: WebGL enabled browser required.

epoch2024-03-31.0
epoch JD2460400.5
perihelion date2021-04-19.50246
perihelion JD2459324.00246
argument of perihelion (°)310.43723
ascending node (°)5.13384
inclination (°)4.46113
eccentricity0.1478276
perihelion distance (AU)2.0491084
Tisserand w.r.t. Jupiter3.5
ΔV w.r.t. Earth (km/sec)9.0
semimajor axis (AU)2.4045703
mean anomaly (°)284.55135
mean daily motion (°/day)0.26433070
aphelion distance (AU)2.760
period (years)3.73
P-vector [x]0.71391294
P-vector [y]-0.61660321
P-vector [z]-0.33185658
Q-vector [x]0.70019987
Q-vector [y]0.63332766
Q-vector [z]0.32956973
absolute magnitude17.06
phase slope0.15
uncertainty0
referenceMPEC 2024-E190
observations used352
oppositions14
arc length (days)7533
first opposition used2002
last opposition used2023
residual rms (arc-secs)0.69
perturbers coarse indicatorM-v
perturbers precise indicator003Ek
first observation date used2002-07-06.0
last observation date used2023-02-19.0
computer nameMPCLINUX
JD of orbit computation2455988.731732
perihelion JD uncertainty (days)2.2780E-04
argument of perihelion uncertainty (°)6.8425E-05
ascending node uncertainty (°)5.3159E-05
inclination uncertainty (°)8.1912E-06
eccentricity uncertainty 1.1190E-07
perihelion distance uncertainty (AU)2.3686E-07
Minimum Orbit Intersection Distances (in AU)
for orbit epoch: 2460400.5, reference: E2024-FB1
Mercury1.61841
Venus1.32095
Earth1.03887
Mars0.65722
Jupiter2.51003
Saturn6.36423
Uranus15.7154
Neptune27.38

Observations

360 total observations over interval: 2002 07 06.45083 – 2023 02 19.282322
These data are available for download (format description).

Date (UT) J2000 RA J2000 Dec Magn Location Ref
2002 07 06.45083 20 46 07.15 -26 12 03.4 19.5   644 – Palomar Mountain/NEAT MPS 138472
2002 07 06.46117 20 46 06.74 -26 12 05.0 20.3   644 – Palomar Mountain/NEAT MPS 138472
2002 07 06.47166 20 46 06.28 -26 12 07.6 19.8   644 – Palomar Mountain/NEAT MPS 138472
2002 07 15.35654 20 39 15.02 -26 39 58.6 19.5   644 – Palomar Mountain/NEAT MPS 138472
2002 07 15.37742 20 39 13.83 -26 40 02.5 19.2   644 – Palomar Mountain/NEAT MPS 138472
2002 07 15.39876 20 39 12.64 -26 40 06.2 19.8   644 – Palomar Mountain/NEAT MPS 138472
2002 08 06.22644 20 17 57.61 -27 17 15.1 18.9   644 – Palomar Mountain/NEAT MPS 138472
2002 08 06.29122 20 17 53.75 -27 17 15.7 18.9   644 – Palomar Mountain/NEAT MPS 138472
2002 08 06.35428 20 17 50.01 -27 17 15.7 19.2   644 – Palomar Mountain/NEAT MPS 138472
2002 08 11.30808 20 13 25.72 -27 15 35.2 19.3   644 – Palomar Mountain/NEAT MPS 138472
2002 08 11.34173 20 13 23.92 -27 15 33.2 19.2   644 – Palomar Mountain/NEAT MPS 138472
2002 08 11.36499 20 13 22.69 -27 15 32.2 20.2   644 – Palomar Mountain/NEAT MPS 138472
2005 03 17.32970 12 49 27.19 -05 33 50.5 20.7 V 691 – Steward Observatory, Kitt Peak-Spacewatch MPS 138472
2005 03 17.35544 12 49 25.81 -05 33 44.9 20.9 V 691 – Steward Observatory, Kitt Peak-Spacewatch MPS 138472
2005 03 17.38069 12 49 24.46 -05 33 39.6 20.6 V 691 – Steward Observatory, Kitt Peak-Spacewatch MPS 138472
2005 04 05.38126 12 31 18.43 -04 14 43.2 19.7 R G96 – Mt. Lemmon Survey MPS 130909
2005 04 05.38818 12 31 18.00 -04 14 41.1 20.1 R G96 – Mt. Lemmon Survey MPS 130909
2005 04 05.39509 12 31 17.59 -04 14 39.7 21.5 R G96 – Mt. Lemmon Survey MPS 130909
2005 04 05.40203 12 31 17.17 -04 14 37.6 20.1 R G96 – Mt. Lemmon Survey MPS 130909
2005 04 06.32392 12 30 23.29 -04 10 34.3 19.7 R G96 – Mt. Lemmon Survey MPS 130909
2005 04 06.32939 12 30 22.99 -04 10 33.2 20.1 R G96 – Mt. Lemmon Survey MPS 130909
2005 04 06.33487 12 30 22.65 -04 10 31.7 19.5 R G96 – Mt. Lemmon Survey MPS 130909
2005 04 06.34034 12 30 22.31 -04 10 30.2 19.8 R G96 – Mt. Lemmon Survey MPS 130909
2005 04 07.32958 12 29 24.71 -04 06 10.3 19.6 R G96 – Mt. Lemmon Survey MPS 138472
2005 04 07.33491 12 29 24.37 -04 06 08.9 19.9 R G96 – Mt. Lemmon Survey MPS 138472
2005 04 07.34026 12 29 24.06 -04 06 07.6 19.4 R G96 – Mt. Lemmon Survey MPS 138472
2005 04 07.34565 12 29 23.73 -04 06 06.0 19.7 R G96 – Mt. Lemmon Survey MPS 138472
2005 05 12.21038 12 06 09.05 -02 28 47.9 20.6 R G96 – Mt. Lemmon Survey MPS 138472
2005 05 12.21970 12 06 08.86 -02 28 47.6 20.7 R G96 – Mt. Lemmon Survey MPS 138472
2005 05 12.22897 12 06 08.72 -02 28 47.4 20.2 R G96 – Mt. Lemmon Survey MPS 138472
2005 05 12.23823 12 06 08.59 -02 28 47.1 21.0 R G96 – Mt. Lemmon Survey MPS 138472
2006 08 27.31404 00 17 32.50 -00 26 17.9 20.7   705 – Apache Point MPS 195521
2006 08 27.31487 00 17 32.47 -00 26 18.1 20.0 V 705 – Apache Point MPS 195521
2006 08 27.42191 00 17 28.41 -00 26 26.1 20.0 V 691 – Steward Observatory, Kitt Peak-Spacewatch MPS 177062
2006 08 27.44224 00 17 27.64 -00 26 27.7 19.9 V 691 – Steward Observatory, Kitt Peak-Spacewatch MPS 177062
2006 08 27.45962 00 17 26.99 -00 26 29.3 20.0 V 691 – Steward Observatory, Kitt Peak-Spacewatch MPS 177062
2006 09 15.26192 00 02 21.08 -01 10 48.7   691 – Steward Observatory, Kitt Peak-Spacewatch MPS 179356
2006 09 15.27926 00 02 20.04 -01 10 51.5   691 – Steward Observatory, Kitt Peak-Spacewatch MPS 179356
2006 09 15.29658 00 02 19.00 -01 10 54.8   691 – Steward Observatory, Kitt Peak-Spacewatch MPS 179356
2006 09 17.22938 00 00 27.87 -01 16 47.7 19.0   704 – Lincoln Laboratory ETS, New Mexico MPS 179356
2006 09 17.24078 00 00 27.21 -01 16 49.4 19.3   704 – Lincoln Laboratory ETS, New Mexico MPS 179356
2006 09 17.25228 00 00 26.49 -01 16 51.5 19.2   704 – Lincoln Laboratory ETS, New Mexico MPS 179356
2006 09 17.26367 00 00 25.77 -01 16 53.1 19.3   704 – Lincoln Laboratory ETS, New Mexico MPS 179356
2006 09 17.27529 00 00 25.07 -01 16 55.5 19.4   704 – Lincoln Laboratory ETS, New Mexico MPS 179356
2006 09 19.20054 23 58 33.30 -01 22 50.4 18.7 R 699 – Lowell Observatory-LONEOS MPS 179356
2006 09 19.22429 23 58 31.93 -01 22 54.8   699 – Lowell Observatory-LONEOS MPS 179356
2006 09 19.24805 23 58 30.44 -01 23 00.1   699 – Lowell Observatory-LONEOS MPS 179356
2006 09 19.27180 23 58 28.96 -01 23 03.8   699 – Lowell Observatory-LONEOS MPS 179356
2006 09 19.309386 23 58 26.641 -01 23 11.32 19.22 V 645 – Apache Point-Sloan Digital Sky Survey MPS 390436
2006 09 19.312858 23 58 26.428 -01 23 12.01 20.03   645 – Apache Point-Sloan Digital Sky Survey MPS 390436
2006 09 20.22058 23 57 33.64 -01 25 58.9 19.1   704 – Lincoln Laboratory ETS, New Mexico MPS 179356
2006 09 20.23201 23 57 33.06 -01 25 59.9 19.6   704 – Lincoln Laboratory ETS, New Mexico MPS 179356
2006 09 20.24341 23 57 32.34 -01 26 04.4 19.7   704 – Lincoln Laboratory ETS, New Mexico MPS 179356
2006 09 20.25479 23 57 31.60 -01 26 05.1 19.0   704 – Lincoln Laboratory ETS, New Mexico MPS 179356
2006 09 20.26693 23 57 30.86 -01 26 06.4 19.2   704 – Lincoln Laboratory ETS, New Mexico MPS 179356
2006 09 22.79253 23 55 03.09 -01 33 48.0 19.5 R D35 – Lulin Observatory MPS 182708
2006 09 22.80564 23 55 02.30 -01 33 50.5 20.3 R D35 – Lulin Observatory MPS 182708
2006 09 22.81874 23 55 01.49 -01 33 53.1 20.8 R D35 – Lulin Observatory MPS 182708
2006 09 27.21482 23 50 49.99 -01 46 44.3 19.2   704 – Lincoln Laboratory ETS, New Mexico MPS 181083
2006 09 27.23913 23 50 48.59 -01 46 49.0 19.5   704 – Lincoln Laboratory ETS, New Mexico MPS 181083
2006 09 27.25129 23 50 47.88 -01 46 51.4 19.7   704 – Lincoln Laboratory ETS, New Mexico MPS 181083
2006 09 27.26361 23 50 47.10 -01 46 53.2 19.2   704 – Lincoln Laboratory ETS, New Mexico MPS 181083
2006 09 30.15581 23 48 07.59 -01 54 42.1 19.7 V 691 – Steward Observatory, Kitt Peak-Spacewatch MPS 182708
2006 09 30.17311 23 48 06.62 -01 54 45.7 19.4 V 691 – Steward Observatory, Kitt Peak-Spacewatch MPS 182708
2006 09 30.19041 23 48 05.64 -01 54 47.6 19.7 V 691 – Steward Observatory, Kitt Peak-Spacewatch MPS 182708
2006 10 01.17348 23 47 12.94 -01 57 17.7 19.3 V 703 – Catalina Sky Survey MPS 182708
2006 10 01.17990 23 47 12.62 -01 57 19.7 19.4 V 703 – Catalina Sky Survey MPS 182708
2006 10 01.18635 23 47 12.15 -01 57 20.2 20.1 V 703 – Catalina Sky Survey MPS 182708
2006 10 01.19277 23 47 11.79 -01 57 21.1 20.2 V 703 – Catalina Sky Survey MPS 182708
2006 10 16.14924 23 36 15.44 -02 22 01.8 20.4 V 703 – Catalina Sky Survey MPS 182965
2006 10 16.15567 23 36 15.19 -02 22 00.9 19.5 V 703 – Catalina Sky Survey MPS 182965
2006 10 16.16210 23 36 15.04 -02 22 02.8 20.1 V 703 – Catalina Sky Survey MPS 182965
2006 10 16.16855 23 36 14.83 -02 22 02.1 20.1 V 703 – Catalina Sky Survey MPS 182965
2006 10 16.21243 23 36 13.21 -02 22 04.0 19.6 V G96 – Mt. Lemmon Survey MPS 182965
2006 10 16.21907 23 36 12.99 -02 22 04.6 19.4 V G96 – Mt. Lemmon Survey MPS 182965
2006 10 16.22575 23 36 12.74 -02 22 04.9 19.8 V G96 – Mt. Lemmon Survey MPS 182965
2006 10 16.23249 23 36 12.52 -02 22 05.1 19.8 V G96 – Mt. Lemmon Survey MPS 182965
2006 10 27.15712 23 32 05.31 -02 19 43.6 20.2 V G96 – Mt. Lemmon Survey MPS 185466
2006 10 27.16661 23 32 05.17 -02 19 43.5 20.3 V G96 – Mt. Lemmon Survey MPS 185466
2006 10 27.17623 23 32 05.02 -02 19 42.8 19.9 V G96 – Mt. Lemmon Survey MPS 185466
2006 10 27.18573 23 32 04.88 -02 19 42.1 20.0 V G96 – Mt. Lemmon Survey MPS 185466
2006 11 13.11162 23 33 01.08 -01 38 10.7 20.7 V G96 – Mt. Lemmon Survey MPS 187005
2006 11 13.11620 23 33 01.18 -01 38 09.2 20.7 V G96 – Mt. Lemmon Survey MPS 187005
2006 11 13.12073 23 33 01.22 -01 38 08.1 21.3 V G96 – Mt. Lemmon Survey MPS 187005
2006 11 13.12535 23 33 01.33 -01 38 07.3 20.7 V G96 – Mt. Lemmon Survey MPS 187005
2008 01 14.23823 08 29 53.15 +25 27 39.4 21.6 V 691 – Steward Observatory, Kitt Peak-Spacewatch MPS 234257
2008 01 14.25590 08 29 52.01 +25 27 44.3 20.9 V 691 – Steward Observatory, Kitt Peak-Spacewatch MPS 234257
2008 01 14.27356 08 29 50.81 +25 27 48.0 20.7 V 691 – Steward Observatory, Kitt Peak-Spacewatch MPS 234257
2008 02 09.26163 08 01 58.54 +26 28 13.9 20.4 V G96 – Mt. Lemmon Survey MPS 237540
2008 02 09.26822 08 01 58.04 +26 28 14.3 20.5 V G96 – Mt. Lemmon Survey MPS 237540
